Hourly Weather Otoruda

Today, 30 July, Friday

Time Temperature Precipitation Wind Pressure Humidity
00:00 +17°C° 0 mm 3 mps 749 mmHg 73%
01:00 +17°C° 0 mm 2 mps 749 mmHg 75%
02:00 +17°C° 0 mm 2 mps 749 mmHg 74%
03:00 +17°C° 0 mm 2 mps 749 mmHg 72%
04:00 +16°C° 0 mm 2 mps 749 mmHg 70%
05:00 +18°C° 0 mm 3 mps 749 mmHg 64%
06:00 +19°C° 0 mm 3 mps 749 mmHg 59%
07:00 +20°C° 0 mm 4 mps 749 mmHg 53%
08:00 +21°C° 0 mm 5 mps 748 mmHg 49%
09:00 +23°C° 0 mm 6 mps 748 mmHg 44%
10:00 +24°C° 0 mm 7 mps 748 mmHg 39%
11:00 +26°C° 0 mm 7 mps 748 mmHg 37%
12:00 +26°C° 0 mm 7 mps 748 mmHg 35%
13:00 +27°C° 0 mm 7 mps 747 mmHg 33%
14:00 +27°C° 0 mm 7 mps 747 mmHg 34%
15:00 +27°C° 0 mm 7 mps 747 mmHg 35%
16:00 +27°C° 0 mm 7 mps 746 mmHg 35%
17:00 +26°C° 0 mm 5 mps 747 mmHg 40%
18:00 +23°C° 0 mm 4 mps 747 mmHg 45%
19:00 +22°C° 0 mm 3 mps 747 mmHg 50%
20:00 +21°C° 0 mm 3 mps 747 mmHg 51%
21:00 +19°C° 0 mm 2 mps 747 mmHg 53%
22:00 +18°C° 0 mm 2 mps 747 mmHg 55%
23:00 +18°C° 0 mm 2 mps 747 mmHg 56%

Tomorrow, 31 July, Saturday

Time Temperature Precipitation Wind Pressure Humidity
00:00 +17°C° 0 mm 2 mps 747 mmHg 58%
01:00 +17°C° 0 mm 2 mps 747 mmHg 59%
02:00 +17°C° 0 mm 2 mps 747 mmHg 60%
03:00 +17°C° 0 mm 2 mps 747 mmHg 61%
04:00 +16°C° 0 mm 2 mps 747 mmHg 62%
05:00 +18°C° 0 mm 3 mps 747 mmHg 60%
06:00 +19°C° 0 mm 3 mps 747 mmHg 59%
07:00 +20°C° 0 mm 3 mps 747 mmHg 58%
08:00 +22°C° 0 mm 4 mps 747 mmHg 53%
09:00 +25°C° 0 mm 4 mps 746 mmHg 49%
10:00 +27°C° 0 mm 5 mps 746 mmHg 45%
11:00 +27°C° 0 mm 5 mps 746 mmHg 49%
12:00 +26°C° 0 mm 5 mps 746 mmHg 52%
13:00 +25°C° 0 mm 4 mps 746 mmHg 55%
14:00 +26°C° 0 mm 4 mps 746 mmHg 50%
15:00 +27°C° 0 mm 4 mps 746 mmHg 45%
16:00 +27°C° 0 mm 4 mps 745 mmHg 40%
17:00 +26°C° 0 mm 4 mps 745 mmHg 42%
18:00 +25°C° 0 mm 4 mps 745 mmHg 44%
19:00 +24°C° 0 mm 3 mps 745 mmHg 46%
20:00 +21°C° 0 mm 3 mps 746 mmHg 50%
21:00 +20°C° 0 mm 3 mps 746 mmHg 54%
22:00 +18°C° 0 mm 3 mps 747 mmHg 58%
23:00 +18°C° 0 mm 3 mps 747 mmHg 61%

Day after tomorrow, 1 August, Sunday

Time Temperature Precipitation Wind Pressure Humidity
00:00 +17°C° 0 mm 3 mps 747 mmHg 63%
01:00 +17°C° 0 mm 3 mps 747 mmHg 66%
02:00 +16°C° 0 mm 3 mps 747 mmHg 69%
03:00 +16°C° 0 mm 3 mps 747 mmHg 71%
04:00 +14°C° 0 mm 3 mps 747 mmHg 74%
05:00 +16°C° 0 mm 3 mps 747 mmHg 72%
06:00 +18°C° 0 mm 3 mps 747 mmHg 70%
07:00 +19°C° 0 mm 4 mps 747 mmHg 67%
08:00 +20°C° 0 mm 4 mps 747 mmHg 63%
09:00 +21°C° 0 mm 4 mps 747 mmHg 59%
10:00 +22°C° 0 mm 4 mps 747 mmHg 55%
11:00 +21°C° 0.2 mm 4 mps 748 mmHg 59%
12:00 +21°C° 0.2 mm 4 mps 748 mmHg 64%
13:00 +20°C° 0.2 mm 5 mps 748 mmHg 68%
14:00 +20°C° 0.1 mm 4 mps 748 mmHg 69%
15:00 +20°C° 0.1 mm 4 mps 748 mmHg 69%
16:00 +20°C° 0.1 mm 4 mps 748 mmHg 69%
17:00 +20°C° 0 mm 3 mps 747 mmHg 71%
18:00 +19°C° 0 mm 2 mps 747 mmHg 72%
19:00 +19°C° 0 mm 2 mps 747 mmHg 73%
20:00 +18°C° 0 mm 2 mps 747 mmHg 76%
21:00 +17°C° 0 mm 2 mps 747 mmHg 80%
22:00 +16°C° 0 mm 2 mps 747 mmHg 83%
23:00 +16°C° 0 mm 2 mps 747 mmHg 83%

2 August, Monday

Time Temperature Precipitation Wind Pressure Humidity
00:00 +15°C° 0 mm 2 mps 747 mmHg 83%
01:00 +15°C° 0 mm 2 mps 748 mmHg 84%
02:00 +15°C° 0 mm 2 mps 747 mmHg 85%
03:00 +14°C° 0 mm 2 mps 747 mmHg 87%
04:00 +14°C° 0 mm 2 mps 747 mmHg 88%
05:00 +16°C° 0 mm 3 mps 747 mmHg 82%
06:00 +17°C° 0 mm 3 mps 747 mmHg 75%
07:00 +19°C° 0 mm 3 mps 748 mmHg 69%
08:00 +20°C° 0.1 mm 4 mps 748 mmHg 63%
09:00 +21°C° 0.1 mm 4 mps 748 mmHg 58%
10:00 +23°C° 0.1 mm 5 mps 748 mmHg 52%
11:00 +22°C° 0.3 mm 5 mps 748 mmHg 55%
12:00 +22°C° 0.3 mm 5 mps 748 mmHg 58%
13:00 +21°C° 0.3 mm 5 mps 748 mmHg 61%
14:00 +22°C° 0.1 mm 5 mps 748 mmHg 54%
15:00 +23°C° 0.1 mm 5 mps 748 mmHg 48%
16:00 +23°C° 0.1 mm 5 mps 748 mmHg 42%
17:00 +22°C° 0 mm 5 mps 748 mmHg 43%
18:00 +21°C° 0 mm 5 mps 749 mmHg 44%
19:00 +20°C° 0 mm 5 mps 749 mmHg 46%
20:00 +19°C° 0 mm 5 mps 749 mmHg 49%
21:00 +18°C° 0 mm 4 mps 750 mmHg 53%
22:00 +17°C° 0 mm 3 mps 750 mmHg 56%
23:00 +17°C° 0 mm 3 mps 751 mmHg 60%

3 August, Tuesday

Time Temperature Precipitation Wind Pressure Humidity
00:00 +16°C° 0 mm 3 mps 751 mmHg 64%
01:00 +16°C° 0 mm 3 mps 751 mmHg 67%
02:00 +14°C° 0 mm 3 mps 751 mmHg 71%
03:00 +13°C° 0 mm 3 mps 751 mmHg 74%
04:00 +13°C° 0 mm 3 mps 751 mmHg 77%
05:00 +14°C° 0 mm 3 mps 751 mmHg 72%
06:00 +15°C° 0 mm 4 mps 752 mmHg 67%
07:00 +18°C° 0 mm 4 mps 752 mmHg 62%
08:00 +19°C° 0 mm 5 mps 752 mmHg 56%
09:00 +21°C° 0 mm 5 mps 752 mmHg 50%
10:00 +22°C° 0 mm 5 mps 752 mmHg 44%
11:00 +23°C° 0 mm 5 mps 752 mmHg 41%
12:00 +25°C° 0 mm 5 mps 752 mmHg 38%
13:00 +26°C° 0 mm 5 mps 751 mmHg 35%
14:00 +25°C° 0 mm 5 mps 751 mmHg 37%
15:00 +25°C° 0 mm 5 mps 751 mmHg 39%
16:00 +25°C° 0 mm 5 mps 751 mmHg 41%
17:00 +23°C° 0 mm 4 mps 751 mmHg 45%
18:00 +22°C° 0 mm 3 mps 751 mmHg 49%
19:00 +20°C° 0 mm 2 mps 751 mmHg 53%
20:00 +19°C° 0 mm 2 mps 751 mmHg 60%
21:00 +18°C° 0 mm 2 mps 751 mmHg 66%
22:00 +17°C° 0 mm 2 mps 752 mmHg 73%
23:00 +17°C° 0.1 mm 2 mps 752 mmHg 77%

4 August, Wednesday

Time Temperature Precipitation Wind Pressure Humidity
00:00 +17°C° 0.1 mm 2 mps 752 mmHg 80%
01:00 +16°C° 0.1 mm 2 mps 752 mmHg 84%
02:00 +16°C° 0 mm 2 mps 752 mmHg 86%
03:00 +16°C° 0 mm 1 mps 752 mmHg 87%
04:00 +16°C° 0 mm 1 mps 751 mmHg 89%
05:00 +18°C° 0 mm 1 mps 752 mmHg 86%
06:00 +18°C° 0 mm 1 mps 752 mmHg 84%
07:00 +18°C° 0 mm 2 mps 752 mmHg 81%
08:00 +20°C° 0.1 mm 1 mps 752 mmHg 77%
09:00 +20°C° 0.1 mm 1 mps 752 mmHg 72%
10:00 +21°C° 0.1 mm 1 mps 752 mmHg 68%
11:00 +22°C° 0.5 mm 1 mps 752 mmHg 64%
12:00 +23°C° 0.5 mm 1 mps 751 mmHg 60%
13:00 +24°C° 0.5 mm 1 mps 751 mmHg 56%
14:00 +24°C° 0.6 mm 1 mps 751 mmHg 56%
15:00 +24°C° 0.6 mm 1 mps 751 mmHg 57%
16:00 +24°C° 0.6 mm 1 mps 751 mmHg 57%
17:00 +23°C° 0.6 mm 1 mps 751 mmHg 63%
18:00 +22°C° 0.6 mm 1 mps 751 mmHg 69%
19:00 +21°C° 0.6 mm 1 mps 751 mmHg 75%
20:00 +20°C° 0.5 mm 1 mps 750 mmHg 79%
21:00 +19°C° 0.5 mm 1 mps 750 mmHg 84%
22:00 +18°C° 0.5 mm 1 mps 750 mmHg 88%
23:00 +18°C° 0.1 mm 1 mps 750 mmHg 89%
Show more